Showing default

FORGESTAR-1, 64546

Orbit data source: Space-Track

FORGESTAR-1, 64546 is a payload satellite owned by Space Forge (UK) in SSO that was launched on Mon, 23 Jun 2025 UTC via an FALCON 9 launch vehicle from the Air Force Western Test Range (AFWTR). Payload-class satellites include a variety of spacecraft equipped with specific instruments for various scientific and technological missions. These include communications satellites like Starlink; space stations such as the ISS; scientific satellites like the Hubble; Earth observation satellites from companies like Planet Labs, Umbra, and HawkEye 360; GPS; miniature CubeSats for education and research; and military/defense satellites.

Loading next visibility...
Identifier
64546, 2025-135U
Orbit
SSO
Country
Flag of UKUK
Related business
Manufacturer
Space Forge
Mission
Operational Commercial Microgravity
Bus & Motor
FORGESTAR, Unknown motor
Mass
~30 kg wet, ~30 kg dry
Launch date (UTC)
2025-06-23 (5 months ago)
Launch vehicle
FALCON 9
Launch site
Air Force Western Test Range (AFWTR)
Object type
Payload
Rocket body
Debris
Shape & HBR
Box, 0.3 m
Radar Cross Section
0.225 m², Medium (>0.1 m² and < 1m²)

Expand to show TLE details & history
Last TLE update: 9 hours ago

TLE from 9 hours ago
0 FORGESTAR-1
1 64546U 25135U   25340.87568652  .00013010  00000-0  59370-3 0  9994
2 64546  97.4560  93.0633 0002068 106.8937 253.2525 15.20741121 25647
Epoch: 2025-12-06T21:00Z
TLE epoch observation values (Epoch: 2025-12-06T21:00:59.315Z)
Latitude
-0.00004°
Longitude
61.91901°
Altitude
507.104 km
Speed
7.61 km/s
True Right ascension
06h 12m 15s
True Declination
0° 00' 00"
Sunlit
Object was in full shadow at epoch
Visualization orbit readout
Latitude
Unknown
Longitude
Unknown
Altitude
Unknown
Speed
Unknown
Apparent Right ascension
Unknown
Apparent Declination
Unknown
Sunlit
N/A
Visualization observer readout
Local Sidereal Time
04:13:31
Azimuth
Unknown
Elevation
Unknown
Doppler factor
Unknown
Orbital elements
Apogee altitude
501.993 km
Perigee altitude
499.148 km
Semi-major axis
6,878.708 km
Eccentricity
0.00021
Inclination
97.456°
RAAN
93.0633°
Arg. of periapsis
106.8937°
True anomaly
253.22981°
Mean anomaly
253.2525°
Eccentric anomaly
253.24115°
Mean motion
3.80437 °/min
Orbital period
94.63 mins
BSTAR
0.0005937
Loading maneuver chart data...
Computing Atmospheric mass density...
Loading historical data...
Loading historical data...
Loading historical data...
Loading historical data...
Loading historical data...
Loading historical data...
Loading historical data...

Documentation

Showing up to 5 results
|